Viroqua, WI

2:59 PM CST on February 26, 2017 (GMT -0600)
Viroqua

Weather History for KY51 - August, 2013

Change the Weather History Date:

Monday, August 19, 2013

  Actual Average (KCMY) Record (KCMY)
Temperature  
Mean Temperature 68 °F -  
Max Temperature 79 °F 81 °F 96 °F (2011)
Min Temperature 58 °F 56 °F 37 °F (2004)
Cooling Degree Days 4    
Growing Degree Days 18 (Base 50)    
Moisture  
Dew Point 60 °F    
Average Humidity 73    
Maximum Humidity 99    
Minimum Humidity 54    
Precipitation  
Precipitation 0.00 in - - ()
Sea Level Pressure  
Sea Level Pressure 30.07 in    
Wind  
Wind Speed 7 mph (SSW)    
Max Wind Speed 14 mph    
Max Gust Speed 21 mph    
Visibility 10 miles    
Events      
Averages and records for this station are not official NWS values.
T = Trace of Precipitation, MM = Missing Value Source: NWS Daily Summary

Daily Weather History Graph

Daily Weather History Graph

Search for Another Location

Airport or City:

Trip Planner

Search our weather history database for the weather conditions in past years. The results will help you decide how hot, cold, wet, or windy it might be!

Date:

Astronomy

Aug. 19, 2013 Rise Set
Actual Time 6:13 AM CDT 8:00 PM CDT
Civil Twilight 5:42 AM CDT 8:30 PM CDT
Nautical Twilight 5:05 AM CDT 9:07 PM CDT
Astronomical Twilight 4:24 AM CDT 9:48 PM CDT
Moon 6:51 PM CDT (8/19) 4:31 AM CDT (8/19)
Length of Visible Light 14h 48m
Length of Day
13h 47m
Waxing Gibbous, 97% of the Moon is Illuminated
Aug 19
Waxing Gibbous
Aug 20
Full
Aug 28
Last Quarter
Sep 5
New
Sep 12
First Quarter

Hourly Weather History & Observations

Time (CDT) Temp. Dew Point Humidity Pressure Visibility Wind Dir Wind Speed Gust Speed Precip Events Conditions
12:15 AM 65.8 °F 56.5 °F 72% 30.11 in 10.0 mi South 6.9 mph - N/A   Clear
12:35 AM 65.3 °F 56.5 °F 73% 30.10 in 10.0 mi South 6.9 mph - N/A   Clear
12:55 AM 65.1 °F 56.3 °F 73% 30.10 in 10.0 mi South 5.8 mph - N/A   Clear
1:15 AM 64.9 °F 55.9 °F 73% 30.10 in 10.0 mi South 5.8 mph - N/A   Clear
1:35 AM 64.6 °F 55.8 °F 73% 30.10 in 10.0 mi SSW 5.8 mph - N/A   Clear
1:55 AM 61.5 °F 55.6 °F 81% 30.10 in 10.0 mi SSW 4.6 mph - N/A   Clear
2:15 AM 61.7 °F 55.9 °F 81% 30.10 in 10.0 mi SSW 4.6 mph - N/A   Clear
2:35 AM 62.8 °F 56.3 °F 79% 30.10 in 10.0 mi SSW 6.9 mph - N/A   Clear
2:55 AM 62.6 °F 56.1 °F 79% 30.10 in 10.0 mi South 6.9 mph - N/A   Clear
3:15 AM 62.8 °F 56.3 °F 79% 30.09 in 10.0 mi South 6.9 mph - N/A   Clear
3:35 AM 62.6 °F 56.3 °F 80% 30.09 in 10.0 mi South 6.9 mph - N/A   Scattered Clouds
3:55 AM 61.2 °F 56.3 °F 84% 30.10 in 10.0 mi SW 4.6 mph - N/A   Mostly Cloudy
4:15 AM 60.8 °F 56.7 °F 86% 30.09 in 10.0 mi SSW 4.6 mph - N/A   Overcast
4:35 AM 61.7 °F 57.2 °F 85% 30.09 in 10.0 mi South 4.6 mph - N/A   Mostly Cloudy
4:55 AM 61.7 °F 57.2 °F 85% 30.08 in 10.0 mi South 5.8 mph - N/A   Scattered Clouds
5:15 AM 61.7 °F 57.4 °F 86% 30.08 in 10.0 mi South 5.8 mph - N/A   Scattered Clouds
5:35 AM 60.1 °F 56.5 °F 88% 30.09 in 10.0 mi SSW 3.5 mph - N/A   Scattered Clouds
5:55 AM 59.5 °F 58.3 °F 96% 30.09 in 10.0 mi Calm Calm - N/A   Scattered Clouds
6:15 AM 58.6 °F 58.3 °F 99% 30.10 in 7.0 mi Calm Calm - N/A   Scattered Clouds
6:35 AM 59.7 °F 58.3 °F 95% 30.10 in 10.0 mi SSW 3.5 mph - N/A   Clear
6:55 AM 60.8 °F 59.0 °F 94% 30.10 in 10.0 mi South 4.6 mph - N/A   Clear
7:15 AM 62.1 °F 59.4 °F 91% 30.10 in 10.0 mi South 5.8 mph - N/A   Clear
7:35 AM 63.0 °F 59.4 °F 88% 30.09 in 10.0 mi SSW 3.5 mph - N/A   Clear
7:55 AM 65.3 °F 58.5 °F 78% 30.09 in 10.0 mi South 6.9 mph - N/A   Clear
8:15 AM 66.2 °F 58.6 °F 77% 30.09 in 10.0 mi SSW 6.9 mph - N/A   Clear
8:35 AM 66.4 °F 58.8 °F 77% 30.09 in 10.0 mi SSW 8.1 mph - N/A   Clear
8:55 AM 66.9 °F 59.2 °F 76% 30.08 in 10.0 mi SSW 8.1 mph - N/A   Clear
9:15 AM 68.0 °F 59.7 °F 75% 30.09 in 10.0 mi SW 6.9 mph - N/A   Clear
9:35 AM 68.0 °F 59.4 °F 74% 30.09 in 10.0 mi SSW 8.1 mph - N/A   Clear
9:55 AM 68.0 °F 59.9 °F 75% 30.09 in 10.0 mi SSW 5.8 mph - N/A   Clear
10:15 AM 70.0 °F 60.4 °F 72% 30.09 in 10.0 mi South 6.9 mph - N/A   Clear
10:35 AM 72.5 °F 60.8 °F 67% 30.09 in 10.0 mi SSW 8.1 mph - N/A   Clear
10:55 AM 73.4 °F 61.2 °F 65% 30.09 in 10.0 mi SSW 9.2 mph - N/A   Clear
11:15 AM 74.1 °F 61.2 °F 64% 30.09 in 10.0 mi SSW 8.1 mph - N/A   Clear
11:35 AM 75.2 °F 60.8 °F 61% 30.09 in 10.0 mi SW 11.5 mph - N/A   Clear
11:55 AM 76.1 °F 61.7 °F 61% 30.08 in 10.0 mi SW 10.4 mph - N/A   Clear
12:15 PM 77.0 °F 61.5 °F 59% 30.09 in 10.0 mi SSW 9.2 mph - N/A   Clear
12:35 PM 77.7 °F 61.3 °F 57% 30.08 in 10.0 mi WSW 12.7 mph - N/A   Clear
12:55 PM 78.1 °F 62.4 °F 58% 30.08 in 10.0 mi WSW 11.5 mph - N/A   Clear
1:15 PM 78.1 °F 62.8 °F 59% 30.07 in 10.0 mi SW 13.8 mph - N/A   Scattered Clouds
1:35 PM 79.3 °F 62.8 °F 57% 30.07 in 10.0 mi SW 13.8 mph 18.4 mph N/A   Scattered Clouds
1:55 PM 77.5 °F 62.1 °F 59% 30.07 in 10.0 mi WSW 10.4 mph - N/A   Scattered Clouds
2:15 PM 77.2 °F 62.1 °F 59% 30.07 in 10.0 mi SW 12.7 mph - N/A   Clear
2:35 PM 79.0 °F 60.8 °F 54% 30.07 in 10.0 mi SW 11.5 mph - N/A   Scattered Clouds
2:55 PM 79.0 °F 61.2 °F 54% 30.07 in 10.0 mi WSW 13.8 mph 20.7 mph N/A   Scattered Clouds
3:15 PM 77.9 °F 61.7 °F 57% 30.06 in 10.0 mi SW 11.5 mph 18.4 mph N/A   Scattered Clouds
3:35 PM 77.2 °F 62.2 °F 60% 30.06 in 10.0 mi SW 11.5 mph - N/A   Mostly Cloudy
3:55 PM 76.5 °F 61.7 °F 60% 30.06 in 10.0 mi SW 11.5 mph - N/A   Scattered Clouds
4:15 PM 75.7 °F 62.1 °F 62% 30.05 in 10.0 mi SW 8.1 mph - N/A   Clear
4:35 PM 76.1 °F 61.3 °F 60% 30.05 in 10.0 mi SSW 10.4 mph - N/A   Clear
4:55 PM 76.6 °F 61.9 °F 60% 30.05 in 10.0 mi SSW 10.4 mph - N/A   Clear
5:15 PM 76.5 °F 61.9 °F 61% 30.05 in 10.0 mi SSW 9.2 mph - N/A   Clear
5:35 PM 77.2 °F 61.5 °F 58% 30.05 in 10.0 mi SSW 8.1 mph - N/A   Clear
5:55 PM 77.0 °F 62.1 °F 60% 30.04 in 10.0 mi SSW 9.2 mph - N/A   Clear
6:15 PM 76.8 °F 62.4 °F 61% 30.04 in 10.0 mi SSW 6.9 mph - N/A   Clear
6:35 PM 76.1 °F 62.6 °F 63% 30.04 in 10.0 mi SSW 9.2 mph - N/A   Clear
6:55 PM 75.4 °F 62.6 °F 64% 30.04 in 10.0 mi South 6.9 mph - N/A   Clear
7:15 PM 74.5 °F 62.6 °F 66% 30.03 in 10.0 mi South 4.6 mph - N/A   Clear
7:35 PM 73.6 °F 62.4 °F 68% 30.03 in 10.0 mi South 5.8 mph - N/A   Clear
7:55 PM 72.5 °F 62.2 °F 70% 30.03 in 10.0 mi South 4.6 mph - N/A   Clear
8:15 PM 71.6 °F 62.6 °F 73% 30.03 in 10.0 mi South 5.8 mph - N/A   Clear
8:35 PM 70.0 °F 62.6 °F 77% 30.03 in 10.0 mi SSE 5.8 mph - N/A   Clear
8:55 PM 69.1 °F 62.8 °F 80% 30.03 in 10.0 mi South 5.8 mph - N/A   Clear
9:15 PM 69.4 °F 63.1 °F 80% 30.03 in 10.0 mi South 6.9 mph - N/A   Clear
9:35 PM 69.4 °F 63.0 °F 80% 30.04 in 10.0 mi South 5.8 mph - N/A   Clear
9:55 PM 68.9 °F 63.0 °F 81% 30.04 in 10.0 mi South 4.6 mph - N/A   Clear
10:15 PM 68.2 °F 62.8 °F 83% 30.03 in 10.0 mi South 4.6 mph - N/A   Clear
10:35 PM 68.2 °F 62.6 °F 82% 30.03 in 10.0 mi South 6.9 mph - N/A   Clear
10:55 PM 68.4 °F 62.2 °F 81% 30.03 in 10.0 mi South 5.8 mph - N/A   Clear
11:15 PM 68.2 °F 61.9 °F 80% 30.03 in 10.0 mi South 6.9 mph - N/A   Clear
11:35 PM 68.2 °F 62.1 °F 81% 30.03 in 10.0 mi South 6.9 mph - N/A   Clear
11:55 PM 67.6 °F 61.9 °F 82% 30.03 in 10.0 mi South 5.8 mph - N/A   Clear